When you browse on this site, cookies collect data to enhance your experience and personalize the content and advertising you see.
Visit our Privacy Policy to learn more. By continuing to use the site, you agree to this use of cookies and data.
  • In Österreich
  • Länderverzeichnis
  • Für 7 Tage
  • Wassertemperatur
  • Wetterkarte
  • News
  • Widgets
  • user-avatar
    Anmelden

    Stündliche Wetter Chapulhuacán

    Heute, 17 September, Dienstag

    Zeit Temperatur Niederschläge Wind Luftdruck Luftfeuchtigkeit
    00:00 +20°C° 0 mm 1 m/S 677 mmHg 91%
    01:00 +20°C° 0 mm 1 m/S 677 mmHg 91%
    02:00 +20°C° 0 mm 1 m/S 676 mmHg 90%
    03:00 +19°C° 0 mm 1 m/S 676 mmHg 90%
    04:00 +19°C° 0 mm 1 m/S 676 mmHg 89%
    05:00 +19°C° 0 mm 1 m/S 677 mmHg 91%
    06:00 +21°C° 0 mm 1 m/S 677 mmHg 85%
    07:00 +21°C° 0 mm 0 m/S 678 mmHg 79%
    08:00 +23°C° 0 mm 0 m/S 679 mmHg 73%
    09:00 +26°C° 0.1 mm 1 m/S 679 mmHg 70%
    10:00 +27°C° 0.1 mm 1 m/S 679 mmHg 67%
    11:00 +28°C° 0.1 mm 2 m/S 679 mmHg 64%
    12:00 +28°C° 0.2 mm 2 m/S 678 mmHg 66%
    13:00 +28°C° 0.2 mm 2 m/S 677 mmHg 69%
    14:00 +28°C° 0.2 mm 2 m/S 676 mmHg 71%
    15:00 +27°C° 0.4 mm 2 m/S 676 mmHg 78%
    16:00 +25°C° 0.4 mm 1 m/S 676 mmHg 86%
    17:00 +24°C° 0.4 mm 1 m/S 676 mmHg 93%
    18:00 +23°C° 0.3 mm 1 m/S 676 mmHg 94%
    19:00 +22°C° 0.3 mm 1 m/S 677 mmHg 96%
    20:00 +20°C° 0.3 mm 0 m/S 677 mmHg 98%
    21:00 +19°C° 0.1 mm 0 m/S 677 mmHg 98%
    22:00 +19°C° 0.1 mm 0 m/S 677 mmHg 97%
    23:00 +19°C° 0.1 mm 0 m/S 677 mmHg 97%

    Morgen, 18 September, Mittwoch

    Zeit Temperatur Niederschläge Wind Luftdruck Luftfeuchtigkeit
    00:00 +19°C° 0.1 mm 0 m/S 677 mmHg 97%
    01:00 +20°C° 0.1 mm 1 m/S 676 mmHg 96%
    02:00 +20°C° 0.1 mm 1 m/S 676 mmHg 95%
    03:00 +20°C° 0 mm 1 m/S 676 mmHg 95%
    04:00 +20°C° 0 mm 1 m/S 676 mmHg 94%
    05:00 +20°C° 0 mm 1 m/S 676 mmHg 94%
    06:00 +19°C° 0.1 mm 0 m/S 676 mmHg 92%
    07:00 +20°C° 0.1 mm 0 m/S 677 mmHg 89%
    08:00 +22°C° 0.1 mm 0 m/S 677 mmHg 87%
    09:00 +25°C° 0.3 mm 1 m/S 677 mmHg 81%
    10:00 +26°C° 0.3 mm 1 m/S 677 mmHg 75%
    11:00 +28°C° 0.3 mm 2 m/S 677 mmHg 69%
    12:00 +27°C° 1.7 mm 2 m/S 677 mmHg 75%
    13:00 +26°C° 1.7 mm 1 m/S 676 mmHg 82%
    14:00 +26°C° 1.7 mm 1 m/S 675 mmHg 88%
    15:00 +25°C° 1.4 mm 1 m/S 675 mmHg 90%
    16:00 +24°C° 1.4 mm 1 m/S 675 mmHg 93%
    17:00 +24°C° 1.4 mm 1 m/S 675 mmHg 95%
    18:00 +23°C° 0.9 mm 1 m/S 675 mmHg 96%
    19:00 +22°C° 0.9 mm 1 m/S 676 mmHg 97%
    20:00 +22°C° 0.9 mm 1 m/S 676 mmHg 97%
    21:00 +19°C° 1.2 mm 0 m/S 676 mmHg 97%
    22:00 +19°C° 1.2 mm 0 m/S 676 mmHg 97%
    23:00 +19°C° 1.2 mm 0 m/S 676 mmHg 96%

    übermorgen, 19 September, Donnerstag

    Zeit Temperatur Niederschläge Wind Luftdruck Luftfeuchtigkeit
    00:00 +19°C° 0.3 mm 0 m/S 676 mmHg 97%
    01:00 +19°C° 0.3 mm 0 m/S 675 mmHg 97%
    02:00 +18°C° 0.3 mm 0 m/S 675 mmHg 97%
    03:00 +18°C° 0.1 mm 0 m/S 675 mmHg 97%
    04:00 +18°C° 0.1 mm 0 m/S 675 mmHg 97%
    05:00 +18°C° 0.1 mm 0 m/S 675 mmHg 96%
    06:00 +19°C° 0 mm 0 m/S 676 mmHg 94%
    07:00 +21°C° 0 mm 0 m/S 676 mmHg 91%
    08:00 +22°C° 0 mm 0 m/S 677 mmHg 89%
    09:00 +24°C° 0.5 mm 1 m/S 676 mmHg 87%
    10:00 +25°C° 0.5 mm 1 m/S 676 mmHg 85%
    11:00 +26°C° 0.5 mm 1 m/S 676 mmHg 83%
    12:00 +26°C° 0.9 mm 1 m/S 675 mmHg 85%
    13:00 +26°C° 0.9 mm 1 m/S 675 mmHg 86%
    14:00 +25°C° 0.9 mm 1 m/S 674 mmHg 87%
    15:00 +25°C° 0.6 mm 1 m/S 674 mmHg 90%
    16:00 +24°C° 0.6 mm 1 m/S 674 mmHg 92%
    17:00 +23°C° 0.6 mm 1 m/S 674 mmHg 95%
    18:00 +23°C° 0.2 mm 1 m/S 675 mmHg 95%
    19:00 +20°C° 0.2 mm 0 m/S 675 mmHg 96%
    20:00 +20°C° 0.2 mm 0 m/S 676 mmHg 97%
    21:00 +19°C° 0.1 mm 0 m/S 676 mmHg 97%
    22:00 +19°C° 0.1 mm 0 m/S 676 mmHg 97%
    23:00 +19°C° 0.1 mm 0 m/S 676 mmHg 97%

    20 September, Freitag

    Zeit Temperatur Niederschläge Wind Luftdruck Luftfeuchtigkeit
    00:00 +19°C° 0 mm 0 m/S 675 mmHg 97%
    01:00 +19°C° 0 mm 0 m/S 675 mmHg 97%
    02:00 +19°C° 0 mm 0 m/S 675 mmHg 96%
    03:00 +18°C° 0 mm 0 m/S 675 mmHg 96%
    04:00 +18°C° 0 mm 0 m/S 675 mmHg 96%
    05:00 +18°C° 0 mm 0 m/S 675 mmHg 96%
    06:00 +19°C° 0.1 mm 0 m/S 676 mmHg 92%
    07:00 +21°C° 0.1 mm 0 m/S 676 mmHg 88%
    08:00 +22°C° 0.1 mm 0 m/S 677 mmHg 85%
    09:00 +25°C° 0 mm 1 m/S 677 mmHg 77%
    10:00 +27°C° 0 mm 1 m/S 677 mmHg 69%
    11:00 +28°C° 0 mm 2 m/S 677 mmHg 61%
    12:00 +28°C° 0.1 mm 2 m/S 676 mmHg 64%
    13:00 +28°C° 0.1 mm 3 m/S 676 mmHg 67%
    14:00 +28°C° 0.1 mm 3 m/S 675 mmHg 69%
    15:00 +26°C° 0.3 mm 2 m/S 675 mmHg 78%
    16:00 +25°C° 0.3 mm 2 m/S 675 mmHg 86%
    17:00 +23°C° 0.3 mm 1 m/S 675 mmHg 94%
    18:00 +23°C° 0.4 mm 1 m/S 676 mmHg 95%
    19:00 +22°C° 0.4 mm 1 m/S 676 mmHg 96%
    20:00 +19°C° 0.4 mm 0 m/S 677 mmHg 98%
    21:00 +19°C° 0.2 mm 0 m/S 677 mmHg 98%
    22:00 +19°C° 0.2 mm 0 m/S 677 mmHg 98%
    23:00 +19°C° 0.2 mm 0 m/S 677 mmHg 98%

    21 September, Samstag

    Zeit Temperatur Niederschläge Wind Luftdruck Luftfeuchtigkeit
    00:00 +19°C° 0.1 mm 0 m/S 677 mmHg 97%
    01:00 +18°C° 0.1 mm 0 m/S 677 mmHg 97%
    02:00 +18°C° 0.1 mm 0 m/S 676 mmHg 96%
    03:00 +18°C° 0 mm 0 m/S 676 mmHg 96%
    04:00 +18°C° 0 mm 0 m/S 676 mmHg 96%
    05:00 +17°C° 0 mm 0 m/S 676 mmHg 95%
    06:00 +19°C° 0 mm 0 m/S 677 mmHg 92%
    07:00 +20°C° 0 mm 0 m/S 678 mmHg 89%
    08:00 +21°C° 0 mm 0 m/S 678 mmHg 86%
    09:00 +25°C° 0.1 mm 1 m/S 678 mmHg 80%
    10:00 +26°C° 0.1 mm 1 m/S 678 mmHg 73%
    11:00 +27°C° 0.1 mm 2 m/S 678 mmHg 67%
    12:00 +27°C° 0.4 mm 2 m/S 677 mmHg 71%
    13:00 +27°C° 0.4 mm 2 m/S 676 mmHg 74%
    14:00 +26°C° 0.4 mm 2 m/S 676 mmHg 78%
    15:00 +25°C° 0.6 mm 2 m/S 676 mmHg 84%
    16:00 +24°C° 0.6 mm 1 m/S 676 mmHg 89%
    17:00 +23°C° 0.6 mm 1 m/S 676 mmHg 95%
    18:00 +22°C° 0.1 mm 1 m/S 676 mmHg 96%
    19:00 +22°C° 0.1 mm 1 m/S 677 mmHg 96%
    20:00 +19°C° 0.1 mm 0 m/S 677 mmHg 97%
    21:00 +19°C° 0 mm 0 m/S 677 mmHg 97%
    22:00 +20°C° 0 mm 1 m/S 677 mmHg 97%
    23:00 +20°C° 0 mm 1 m/S 677 mmHg 96%

    22 September, Sonntag

    Zeit Temperatur Niederschläge Wind Luftdruck Luftfeuchtigkeit
    00:00 +20°C° 0 mm 1 m/S 677 mmHg 96%
    01:00 +20°C° 0 mm 1 m/S 677 mmHg 95%
    02:00 +19°C° 0 mm 1 m/S 676 mmHg 95%
    03:00 +19°C° 0 mm 1 m/S 676 mmHg 94%
    04:00 +19°C° 0 mm 1 m/S 676 mmHg 94%
    05:00 +19°C° 0 mm 1 m/S 676 mmHg 94%
    06:00 +21°C° 0 mm 1 m/S 677 mmHg 88%
    07:00 +20°C° 0 mm 0 m/S 678 mmHg 82%
    08:00 +22°C° 0 mm 0 m/S 678 mmHg 76%
    09:00 +26°C° 0 mm 1 m/S 678 mmHg 71%
    10:00 +27°C° 0 mm 1 m/S 678 mmHg 66%
    11:00 +28°C° 0 mm 2 m/S 678 mmHg 61%
    12:00 +28°C° 0.1 mm 2 m/S 677 mmHg 65%
    13:00 +27°C° 0.1 mm 2 m/S 676 mmHg 69%
    14:00 +27°C° 0.1 mm 2 m/S 676 mmHg 73%
    15:00 +26°C° 0.3 mm 2 m/S 676 mmHg 80%
    16:00 +25°C° 0.3 mm 1 m/S 676 mmHg 86%
    17:00 +24°C° 0.3 mm 1 m/S 676 mmHg 93%
    18:00 +23°C° 0.1 mm 1 m/S 676 mmHg 94%
    19:00 +22°C° 0.1 mm 1 m/S 677 mmHg 95%
    20:00 +19°C° 0.1 mm 0 m/S 677 mmHg 96%
    21:00 +19°C° 0 mm 0 m/S 677 mmHg 96%
    22:00 +19°C° 0 mm 0 m/S 677 mmHg 96%
    23:00 +19°C° 0 mm 0 m/S 677 mmHg 96%
    Mehr zeigen